Location: *
(51.0333°S, 178.4667°E)
Time: 22:30:44
(UTC+00:00)

SPOT 5 - Pass Details

Date: 15 November 2019
Orbit: 622 x 816 km, 98.3° (Epoch: 11 December)

Event Time Altitude Azimuth Distance (km) Brightness Sun altitude
Rises 11:10:01 0° 168° (SSE) 3,324 7.5 -19.9°
Reaches altitude 10° 11:12:21 10° 169° (S) 2,408 6.6 -20.0°
Maximum altitude 11:17:41 71° 251° (WSW) 874 3.3 -20.1°
Enters shadow 11:20:20 31° 327° (NNW) 1,419 4.0 -20.2°
